FW9306 Weather Reports


Display with metric or nautical units.
time (UTC)temp
F
wind
direction
speed
MPH
gust
MPH
rain 1hr
in
rain 24hr
in
rain mn
in
humidity
%
barometer
mb
20260506234321 77 336 5.0 6.0 0.00 0.00 0.00 23 1012.3
20260506233818 77 231 5.0 6.0 0.00 0.00 0.00 23 1012.5
20260506233313 77 285 2.0 3.0 0.00 0.00 0.00 25 1012.7
20260506232810 77 161 1.0 2.0 0.00 0.00 0.00 24 1012.4
20260506232306 77 290 3.0 3.0 0.00 0.00 0.00 23 1012.8
20260506231803 77 313 4.0 6.0 0.00 0.00 0.00 25 1012.8
20260506231300 77 314 5.0 5.0 0.00 0.00 0.00 26 1012.8
20260506230758 78 276 3.0 3.0 0.00 0.00 0.00 27 1012.7
20260506230249 78 196 5.0 7.0 0.00 0.00 0.00 25 1012.8
20260506225745 78 212 3.0 5.0 0.00 0.00 0.00 24 1012.8
20260506225243 78 316 8.0 9.0 0.00 0.00 0.00 25 1012.8
20260506224739 77 112 1.0 1.0 0.00 0.00 0.00 25 1012.9
20260506224237 77 45 5.0 6.0 0.00 0.00 0.00 25 1012.8
20260506223732 77 280 3.0 6.0 0.00 0.00 0.00 26 1012.9
20260506223228 77 356 5.0 7.0 0.00 0.00 0.00 27 1013.0
20260506222725 76 296 3.0 3.0 0.00 0.00 0.00 31 1013.3
20260506222220 77 7 7.0 9.0 0.00 0.00 0.00 26 1013.2
20260506221719 76 243 1.0 2.0 0.00 0.00 0.00 28 1013.2
20260506221217 76 237 3.0 3.0 0.00 0.00 0.00 30 1013.1
20260506220714 77 329 8.0 10.0 0.00 0.00 0.00 30 1013.2
20260506220208 76 267 0.0 0.0 0.00 0.00 0.00 28 1013.2
20260506215705 76 266 3.0 3.0 0.00 0.00 0.00 29 1013.3
20260506215201 76 241 5.0 7.0 0.00 0.00 0.00 29 1013.4
20260506214658 77 228 1.0 1.0 0.00 0.00 0.00 26 1013.6
20260506214155 75 225 2.0 2.0 0.00 0.00 0.00 29 1013.5
20260506213654 75 271 5.0 6.0 0.00 0.00 0.00 33 1013.6
20260506213150 75 283 3.0 3.0 0.00 0.00 0.00 27 1013.4
20260506212647 76 346 4.0 6.0 0.00 0.00 0.00 26 1013.6
20260506212142 75 289 5.0 7.0 0.00 0.00 0.00 28 1013.5
20260506211638 75 317 4.0 5.0 0.00 0.00 0.00 28 1013.7
20260506211135 76 310 5.0 6.0 0.00 0.00 0.00 27 1014.0
20260506210632 75 17 4.0 5.0 0.00 0.00 0.00 26 1014.0
20260506210129 75 223 2.0 3.0 0.00 0.00 0.00 27 1014.0
20260506205626 75 289 5.0 7.0 0.00 0.00 0.00 29 1014.1
20260506205120 76 233 5.0 6.0 0.00 0.00 0.00 27 1014.1
20260506204619 75 23 2.0 2.0 0.00 0.00 0.00 26 1014.0
20260506204115 74 2 3.0 3.0 0.00 0.00 0.00 26 1014.1
20260506203614 76 285 5.0 6.0 0.00 0.00 0.00 29 1014.4
20260506203109 73 231 2.0 2.0 0.00 0.00 0.00 28 1014.4
20260506202608 75 227 5.0 6.0 0.00 0.00 0.00 31 1014.2
20260506202104 74 295 6.0 8.0 0.00 0.00 0.00 29 1014.6
20260506201601 73 310 1.0 2.0 0.00 0.00 0.00 27 1014.5
20260506201058 75 222 4.0 5.0 0.00 0.00 0.00 28 1014.5
20260506200554 74 307 2.0 2.0 0.00 0.00 0.00 27 1014.6
20260506200051 73 205 2.0 2.0 0.00 0.00 0.00 29 1014.6
20260506195547 74 299 3.0 6.0 0.00 0.00 0.00 27 1014.6
20260506195044 74 205 2.0 2.0 0.00 0.00 0.00 25 1014.7
20260506194542 75 351 1.0 2.0 0.00 0.00 0.00 24 1014.9
20260506194038 75 151 5.0 6.0 0.00 0.00 0.00 25 1014.7
20260506193535 74 84 0.0 1.0 0.00 0.00 0.00 28 1015.0
20260506193032 73 67 3.0 5.0 0.00 0.00 0.00 27 1014.9
20260506192529 73 18 5.0 6.0 0.00 0.00 0.00 27 1015.1
20260506192025 72 28 6.0 7.0 0.00 0.00 0.00 27 1015.1
20260506191522 72 280 6.0 7.0 0.00 0.00 0.00 27 1014.9
20260506191018 72 246 3.0 3.0 0.00 0.00 0.00 30 1015.3
20260506190515 71 340 4.0 5.0 0.00 0.00 0.00 30 1015.3
20260506190012 71 19 3.0 3.0 0.00 0.00 0.00 31 1015.1
20260506185509 72 205 4.0 6.0 0.00 0.00 0.00 32 1015.4
20260506185006 71 321 2.0 2.0 0.00 0.00 0.00 32 1015.4
20260506184503 71 54 4.0 5.0 0.00 0.00 0.00 31 1015.4
20260506184000 72 99 4.0 5.0 0.00 0.00 0.00 32 1015.4
20260506183456 71 25 1.0 1.0 0.00 0.00 0.00 33 1015.4
20260506182953 71 102 6.0 7.0 0.00 0.00 0.00 39 1015.5
20260506182450 71 237 6.0 8.0 0.00 0.00 0.00 35 1015.4
20260506181947 71 5 3.0 3.0 0.00 0.00 0.00 36 1015.6
20260506181445 71 345 3.0 3.0 0.00 0.00 0.00 34 1015.7
20260506180942 71 218 2.0 2.0 0.00 0.00 0.00 33 1015.7
20260506180438 70 323 4.0 6.0 0.00 0.00 0.00 34 1016.0
20260506175935 71 233 2.0 3.0 0.00 0.00 0.00 36 1015.7
20260506175432 69 147 0.0 1.0 0.00 0.00 0.00 35 1015.8
20260506174928 70 258 1.0 1.0 0.00 0.00 0.00 39 1015.8
20260506174426 69 175 1.0 1.0 0.00 0.00 0.00 36 1015.8
20260506173923 69 23 2.0 2.0 0.00 0.00 0.00 37 1015.9
20260506173420 68 127 2.0 2.0 0.00 0.00 0.00 36 1015.8
20260506172917 68 9 2.0 2.0 0.00 0.00 0.00 38 1015.7
20260506172414 68 236 2.0 2.0 0.00 0.00 0.00 42 1015.8
20260506171911 69 255 3.0 3.0 0.00 0.00 0.00 38 1015.7
20260506171408 68 183 1.0 1.0 0.00 0.00 0.00 40 1015.8
20260506170906 68 221 0.0 1.0 0.00 0.00 0.00 39 1015.8
20260506170401 68 348 3.0 3.0 0.00 0.00 0.00 39 1015.9
20260506165855 67 316 3.0 3.0 0.00 0.00 0.00 41 1015.9
20260506165353 67 342 4.0 5.0 0.00 0.00 0.00 40 1015.8
20260506164849 68 53 3.0 3.0 0.00 0.00 0.00 39 1015.7
20260506164345 68 211 0.0 0.0 0.00 0.00 0.00 39 1015.7
20260506163843 68 186 1.0 1.0 0.00 0.00 0.00 40 1015.7
20260506163338 68 112 3.0 3.0 0.00 0.00 0.00 40 1015.9
20260506162833 68 126 1.0 1.0 0.00 0.00 0.00 41 1015.7
20260506162331 67 156 1.0 1.0 0.00 0.00 0.00 40 1015.5
20260506161829 67 185 1.0 2.0 0.00 0.00 0.00 43 1015.7
20260506161326 65 16 1.0 1.0 0.00 0.00 0.00 45 1015.5
20260506160823 64 184 1.0 1.0 0.00 0.00 0.00 47 1015.7
20260506160319 64 289 3.0 3.0 0.00 0.00 0.00 48 1015.6
20260506155818 64 276 3.0 3.0 0.00 0.00 0.00 48 1015.6
20260506155314 64 230 3.0 3.0 0.00 0.00 0.00 49 1015.5
20260506153427 63 139 1.0 1.0 0.00 0.00 0.00 48 1015.5
20260506152925 63 198 1.0 1.0 0.00 0.00 0.00 50 1015.5
20260506152421 64 187 1.0 1.0 0.00 0.00 0.00 49 1015.6
20260506151920 62 128 1.0 2.0 0.00 0.00 0.00 49 1015.7
20260506151417 63 175 0.0 1.0 0.00 0.00 0.00 52 1015.5
20260506150914 62 130 1.0 1.0 0.00 0.00 0.00 50 1015.6
20260506150410 62 226 3.0 3.0 0.00 0.00 0.00 53 1015.5
20260506145907 61 186 2.0 2.0 0.00 0.00 0.00 53 1015.8
20260506145403 60 214 2.0 2.0 0.00 0.00 0.00 53 1015.7
20260506144901 60 193 1.0 2.0 0.00 0.00 0.00 57 1015.5
20260506144357 60 216 3.0 3.0 0.00 0.00 0.00 56 1015.6
20260506143856 59 189 1.0 2.0 0.00 0.00 0.00 60 1015.6
20260506143352 59 195 2.0 2.0 0.00 0.00 0.00 60 1015.7
20260506142851 58 146 1.0 1.0 0.00 0.00 0.00 63 1015.7
20260506142348 57 147 1.0 1.0 0.00 0.00 0.00 64 1015.8
20260506141847 57 176 0.0 1.0 0.00 0.00 0.00 65 1015.6
20260506141344 57 184 3.0 5.0 0.00 0.00 0.00 66 1015.6
20260506140842 57 173 3.0 3.0 0.00 0.00 0.00 66 1015.6
20260506140339 56 164 0.0 0.0 0.00 0.00 0.00 69 1015.5
20260506135836 55 171 0.0 1.0 0.00 0.00 0.00 72 1015.6
20260506135332 53 197 4.0 5.0 0.00 0.00 0.00 72 1015.5
20260506134828 53 198 3.0 3.0 0.00 0.00 0.00 73 1015.3
20260506134325 53 180 3.0 3.0 0.00 0.00 0.00 72 1015.7
20260506133822 54 193 3.0 3.0 0.00 0.00 0.00 72 1015.4
20260506133319 54 174 0.0 0.0 0.00 0.00 0.00 73 1015.4
20260506132816 52 186 1.0 1.0 0.00 0.00 0.00 75 1015.3
20260506132313 51 199 2.0 2.0 0.00 0.00 0.00 77 1015.1
20260506131811 51 187 1.0 2.0 0.00 0.00 0.00 78 1015.5
20260506131307 51 195 3.0 3.0 0.00 0.00 0.00 78 1015.6
20260506130804 51 192 3.0 3.0 0.00 0.00 0.00 78 1015.4
20260506130300 51 194 3.0 3.0 0.00 0.00 0.00 76 1015.1
20260506125759 52 181 2.0 2.0 0.00 0.00 0.00 75 1015.1
20260506125256 52 180 0.0 1.0 0.00 0.00 0.00 75 1015.1
20260506124755 51 148 1.0 1.0 0.00 0.00 0.00 75 1015.3
20260506124252 51 100 1.0 1.0 0.00 0.00 0.00 75 1015.1
20260506123749 51 123 2.0 2.0 0.00 0.00 0.00 75 1014.9
20260506123248 51 114 1.0 2.0 0.00 0.00 0.00 76 1015.1
20260506122744 51 150 1.0 1.0 0.00 0.00 0.00 77 1014.8
20260506122241 50 165 0.0 0.0 0.00 0.00 0.00 78 1014.9
20260506121739 50 162 1.0 1.0 0.00 0.00 0.00 79 1014.7
20260506121236 51 177 0.0 0.0 0.00 0.00 0.00 79 1014.7
20260506120733 51 186 1.0 1.0 0.00 0.00 0.00 79 1014.6
20260506120231 51 182 1.0 1.0 0.00 0.00 0.00 79 1014.8
20260506115729 51 199 0.0 0.0 0.00 0.00 0.00 79 1014.8
20260506115227 51 179 0.0 1.0 0.00 0.00 0.00 79 1014.5
20260506114724 51 197 0.0 1.0 0.00 0.00 0.00 78 1014.5
20260506114221 51 213 1.0 2.0 0.00 0.00 0.00 79 1014.3
20260506113720 51 181 1.0 1.0 0.00 0.00 0.00 79 1014.5
20260506113217 51 166 0.0 0.0 0.00 0.00 0.00 78 1014.5
20260506112713 51 189 0.0 1.0 0.00 0.00 0.00 78 1014.4
20260506112211 52 180 0.0 1.0 0.00 0.00 0.00 77 1014.5
20260506111708 52 185 1.0 2.0 0.00 0.00 0.00 76 1014.4
20260506111206 52 180 0.0 1.0 0.00 0.00 0.00 76 1014.2
20260506110703 52 189 2.0 2.0 0.00 0.00 0.00 76 1014.2
20260506110201 53 197 1.0 1.0 0.00 0.00 0.00 75 1014.1
20260506105657 53 190 3.0 3.0 0.00 0.00 0.00 74 1014.4
20260506105154 53 181 0.0 0.0 0.00 0.00 0.00 73 1014.1
20260506104652 53 166 0.0 1.0 0.00 0.00 0.00 73 1014.3
20260506104149 53 192 0.0 1.0 0.00 0.00 0.00 73 1014.1
20260506103646 54 189 0.0 0.0 0.00 0.00 0.00 71 1014.1
20260506103143 54 177 0.0 0.0 0.00 0.00 0.00 70 1014.2
20260506102641 54 193 0.0 0.0 0.00 0.00 0.00 69 1014.1
20260506102138 55 188 1.0 1.0 0.00 0.00 0.00 68 1014.0
20260506101635 55 190 2.0 2.0 0.00 0.00 0.00 68 1014.0
20260506101132 54 185 0.0 0.0 0.00 0.00 0.00 69 1014.0
20260506100631 54 184 0.0 1.0 0.00 0.00 0.00 68 1014.2
20260506100128 55 185 0.0 0.0 0.00 0.00 0.00 69 1014.1
20260506095627 55 190 0.0 0.0 0.00 0.00 0.00 68 1013.8
20260506095123 55 197 1.0 1.0 0.00 0.00 0.00 66 1013.8
20260506094620 55 185 0.0 0.0 0.00 0.00 0.00 66 1013.5
20260506094118 55 189 1.0 2.0 0.00 0.00 0.00 67 1014.0
20260506093616 55 142 1.0 2.0 0.00 0.00 0.00 66 1013.6
20260506093113 56 121 1.0 1.0 0.00 0.00 0.00 66 1013.7
20260506092611 56 141 1.0 1.0 0.00 0.00 0.00 67 1013.7
20260506092108 55 133 1.0 2.0 0.00 0.00 0.00 68 1013.8
20260506091606 55 148 1.0 1.0 0.00 0.00 0.00 69 1013.6
20260506091103 56 164 1.0 1.0 0.00 0.00 0.00 71 1013.7
20260506090601 56 151 0.0 1.0 0.00 0.00 0.00 70 1013.4
20260506090057 57 181 1.0 1.0 0.00 0.00 0.00 70 1013.8
20260506085554 57 206 2.0 2.0 0.00 0.00 0.00 69 1013.5
20260506085050 57 195 3.0 3.0 0.00 0.00 0.00 69 1013.8
20260506084547 57 196 1.0 1.0 0.00 0.00 0.00 70 1013.8
20260506084043 57 182 1.0 1.0 0.00 0.00 0.00 69 1013.8
20260506083541 57 197 2.0 2.0 0.00 0.00 0.00 69 1013.8
20260506083038 57 201 3.0 3.0 0.00 0.00 0.00 69 1013.8
20260506082535 57 171 2.0 2.0 0.00 0.00 0.00 69 1013.8
20260506082030 57 238 1.0 1.0 0.00 0.00 0.00 69 1014.0
20260506081529 57 159 1.0 1.0 0.00 0.00 0.00 69 1014.0
20260506081026 58 147 1.0 2.0 0.00 0.00 0.00 68 1013.7
20260506080523 58 166 1.0 1.0 0.00 0.00 0.00 67 1013.8
20260506073507 60 220 1.0 1.0 0.00 0.00 0.00 62 1014.1
20260506073004 60 198 0.0 0.0 0.00 0.00 0.00 62 1013.8
20260506072501 60 257 1.0 1.0 0.00 0.00 0.00 61 1013.7
20260506071959 60 191 0.0 0.0 0.00 0.00 0.00 60 1014.0
20260506071456 60 225 1.0 1.0 0.00 0.00 0.00 60 1013.8
20260506070953 61 253 1.0 2.0 0.00 0.00 0.00 60 1013.7
20260506070450 60 219 3.0 3.0 0.00 0.00 0.00 60 1014.0
20260506062428 62 293 5.0 6.0 0.00 0.28 0.28 55 1013.6
20260506061923 62 238 2.0 2.0 0.00 0.28 0.28 56 1013.7
20260506061420 62 242 3.0 3.0 0.00 0.28 0.28 56 1013.4
20260506060918 62 264 2.0 2.0 0.00 0.28 0.28 55 1013.5
20260506060416 62 256 4.0 5.0 0.00 0.28 0.28 55 1013.6
20260506051348 64 287 4.0 5.0 0.00 0.28 0.28 51 1013.3
20260506050845 64 276 5.0 6.0 0.00 0.28 0.28 50 1013.3
20260506050343 64 280 3.0 3.0 0.00 0.28 0.28 50 1013.1
20260506044833 64 270 3.0 3.0 0.00 0.28 0.28 50 1012.8
20260506044331 64 267 7.0 8.0 0.00 0.28 0.28 50 1012.8
20260506043828 64 330 3.0 3.0 0.00 0.28 0.28 50 1013.0
20260506043325 65 252 3.0 3.0 0.00 0.28 0.28 50 1012.8
20260506042823 65 301 6.0 8.0 0.00 0.28 0.28 49 1012.7
20260506042322 65 279 6.0 7.0 0.00 0.28 0.28 49 1012.5
20260506041821 65 246 6.0 7.0 0.00 0.28 0.28 49 1012.4
20260506041317 65 269 5.0 7.0 0.00 0.28 0.28 48 1012.4
20260506040814 66 239 6.0 7.0 0.00 0.28 0.28 46 1012.2
20260506040312 66 285 5.0 6.0 0.00 0.28 0.28 45 1012.1
20260506035808 66 263 9.0 10.0 0.00 0.28 0.28 43 1012.2
20260506035306 66 249 5.0 6.0 0.00 0.28 0.28 40 1012.3
20260506034803 66 258 6.0 7.0 0.00 0.28 0.28 39 1012.1
20260506034259 67 259 6.0 7.0 0.00 0.28 0.28 38 1012.0
20260506033756 66 280 6.0 7.0 0.00 0.28 0.28 38 1011.8
20260506033253 67 272 5.0 6.0 0.00 0.28 0.28 37 1011.8
20260506032750 67 262 6.0 7.0 0.00 0.28 0.28 37 1011.8
20260506032247 67 289 6.0 8.0 0.00 0.28 0.28 36 1011.8
20260506031744 67 285 5.0 6.0 0.00 0.28 0.28 36 1011.7
20260506031241 67 270 6.0 7.0 0.00 0.28 0.28 36 1011.5
20260506030739 68 287 5.0 6.0 0.00 0.28 0.28 36 1011.6
20260506030237 68 314 5.0 6.0 0.00 0.28 0.28 35 1011.5
20260506025733 68 270 8.0 10.0 0.00 0.28 0.28 36 1011.5
20260506025230 68 287 6.0 7.0 0.00 0.28 0.28 36 1011.1
20260506024727 68 284 5.0 7.0 0.00 0.28 0.28 35 1011.1
20260506024223 68 275 5.0 7.0 0.00 0.28 0.28 37 1011.1
20260506023719 68 280 7.0 8.0 0.00 0.28 0.28 36 1011.0
20260506023217 68 281 8.0 9.0 0.00 0.28 0.28 36 1011.0
20260506022713 68 287 9.0 11.0 0.00 0.28 0.28 36 1010.8
20260506022211 68 328 9.0 13.0 0.00 0.28 0.28 36 1010.8
20260506021709 68 329 5.0 7.0 0.00 0.28 0.28 37 1010.6
20260506021206 68 296 8.0 9.0 0.00 0.28 0.28 36 1010.5
20260506020703 69 278 9.0 13.0 0.00 0.28 0.28 36 1010.4
20260506020201 69 290 10.0 13.0 0.00 0.28 0.28 36 1010.2
20260506015658 69 305 7.0 8.0 0.00 0.28 0.28 37 1010.3
20260506015155 69 291 8.0 10.0 0.00 0.28 0.28 36 1010.2
20260506014652 69 292 9.0 11.0 0.00 0.28 0.28 36 1010.2
20260506014148 70 295 12.0 14.0 0.00 0.28 0.28 35 1010.4
20260506013646 70 289 11.0 14.0 0.00 0.28 0.28 35 1010.1
20260506013143 71 294 9.0 10.0 0.00 0.28 0.28 33 1010.1
20260506012639 71 260 13.0 17.0 0.00 0.28 0.28 31 1010.1
20260506012136 71 171 11.0 14.0 0.00 0.28 0.28 31 1010.1
20260506011633 71 248 9.0 10.0 0.00 0.28 0.28 31 1009.9
20260506011129 71 254 11.0 14.0 0.00 0.28 0.28 31 1009.8
20260506010628 72 219 8.0 9.0 0.00 0.28 0.28 32 1009.8
20260506010125 72 315 11.0 14.0 0.00 0.28 0.28 31 1009.8
20260506005622 72 276 9.0 13.0 0.00 0.28 0.28 32 1009.8
20260506005118 72 251 9.0 13.0 0.00 0.28 0.28 32 1009.5
20260506004615 72 259 11.0 11.0 0.00 0.28 0.28 31 1009.5
20260506004112 72 262 12.0 14.0 0.00 0.28 0.28 31 1009.5
20260506003609 72 273 11.0 15.0 0.00 0.28 0.28 31 1009.4
20260506003105 72 279 11.0 16.0 0.00 0.28 0.28 31 1009.7
20260506002601 73 280 11.0 14.0 0.00 0.28 0.28 32 1009.5
20260506002057 73 247 10.0 13.0 0.00 0.28 0.28 31 1009.4
20260506001553 73 18 13.0 14.0 0.00 0.28 0.28 31 1009.3
20260506001050 73 295 8.0 9.0 0.00 0.28 0.28 32 1009.4
20260506000548 73 273 11.0 13.0 0.00 0.28 0.28 32 1009.4
20260506000045 73 186 7.0 8.0 0.00 0.28 0.28 33 1009.4
20260505235543 73 252 15.0 18.0 0.00 0.28 0.28 30 1009.3
20260505235040 73 245 9.0 11.0 0.00 0.28 0.28 30 1009.3